Regional Weather Roundup
Issued by NWS

Home | Current Version | Previous Version | Text Only | Print | Product List | Glossary Off
Versions: 1 2 3 4 5 6 7 8 9 10 11 12 13 14 15 16 17 18 19 20 21 22 23 24 25 26 27 28 29 30 31 32 33 34 35 36 37 38 39 40 41 42 43 44 45 46 47 48 49 50

000
ASUS43 KLOT 190806
RWRIL

ILLINOIS REGIONAL WEATHER ROUNDUP
NATIONAL WEATHER SERVICE CHICAGO/ROMEOVILLE IL
200 AM CST FRI DEC 19 2014

NOTE: "FAIR" INDICATES FEW OR NO CLOUDS BELOW 12,000 FEET WITH NO
SIGNIFICANT WEATHER AND/OR OBSTRUCTIONS TO VISIBILITY.

* THESE STATIONS ARE NOT UNDER NWS QUALITY CONTROL. THEY ALSO MAY NOT
  REPORT WEATHER SUCH AS PRECIPITATION OR FOG.

ILZ001-002-007-009-015-016-024-190900-
NORTHWEST ILLINOIS

CITY           SKY/WX    TMP DP  RH WIND       PRES   REMARKS
MOLINE         PTCLDY    18  14  84 E3        30.31S
STERLING*      CLOUDY    25  19  80 NW7       30.30R WCI  17
SAVANNA*       CLOUDY    26  18  72 CALM      30.31R
$$

ILZ003-004-008-010-011-017-018-190900-
NORTH CENTRAL ILLINOIS

CITY           SKY/WX    TMP DP  RH WIND       PRES   REMARKS
ROCKFORD       CLOUDY    27  20  75 N3        30.30R
FREEPORT*      CLOUDY    25  20  83 W3        30.31R
ROCHELLE*      CLOUDY    25  21  86 NW5       30.29R WCI  19
DE KALB*       CLOUDY    24  19  81 W6        30.27R WCI  17
PERU*          PTCLDY    18  15  88 W6        30.31R WCI  10
$$

ILZ005-006-012>014-019>023-190900-
NORTHEAST ILLINOIS

CITY           SKY/WX    TMP DP  RH WIND       PRES   REMARKS
CHICAGO-OHARE  CLOUDY    27  22  81 NW8       30.27R WCI  19
CHICAGO-MIDWAY FLURRIES  29  22  75 NW7       30.27R WCI  22
AURORA         CLOUDY    26  19  74 NW5       30.28R WCI  20
LANSING*       CLOUDY    28  23  82 W5        30.27R WCI  22
JOLIET*        CLOUDY    26  21  82 NW3       30.29R
WAUKEGAN       CLOUDY    27  21  78 W7        30.26R WCI  19
DUPAGE AIRPORT CLOUDY    27  20  75 NW5       30.27R WCI  22
KANKAKEE*      CLOUDY    25  22  87 W5        30.29R WCI  19
WHEELING       CLOUDY    28  23  81 NW6       30.29R WCI  22
MORRIS*        CLOUDY    23  22  94 NW5       30.28S WCI  17
ROMEOVILLE*    CLOUDY    27  21  80 NW6       30.28R WCI  20
NORTHERLY ISL    N/A     29  24  82 W9          N/A  WCI  21
$$

LMZ740>746-190900-
SOUTHERN LAKE MICHIGAN

STATION/POSITION SKY/WX   TEMP    WIND        PRES    VSBY  WAVE
                          AIR SEA DIR/SP/G                  HT/PER
                          (F)     (DEG/KT/KT) (MB)    (MI)  (FT/S)
WAUKEGAN HARBOR            28     330/  4/  7   N/A
HARRISON CRIB              29     310/ 12/ 13   N/A
BURNHAM HARBOR             29     270/  8/ 14   N/A
CALUMET HARBOR             29     260/  5/  8 1023.5R
$$

ILZ025>027-034>036-040-047-049-050-058-095>099-190900-
WEST-CENTRAL ILLINOIS

CITY           SKY/WX    TMP DP  RH WIND       PRES   REMARKS
QUINCY         CLOUDY    28  24  85 NE3       30.28F
GALESBURG*     CLOUDY    23  21  91 NE5       30.31R WCI  17
MACOMB*        CLOUDY    28  25  87 CALM      30.32R
JACKSONVILLE*  CLOUDY    31  26  84 CALM      30.29F
PITTSFIELD*    CLOUDY    30  27  90 CALM      30.29F
$$

ILZ028>032-037-038-041>044-048-051>054-059>061-190900-
CENTRAL ILLINOIS

CITY           SKY/WX    TMP DP  RH WIND       PRES   REMARKS
PONTIAC        PTCLDY    19  17  92 CALM      30.30R
BLOOMINGTON    CLEAR     21  18  88 CALM      30.29R
DECATUR        PTCLDY    24  21  88 CALM      30.29S
PEORIA         CLEAR     21  17  84 CALM      30.30S
LACON*         CLEAR     15  13  90 CALM      30.30S
LINCOLN*       PTCLDY    24  22  89 CALM      30.31S
SPRINGFIELD    CLOUDY    29  23  78 CALM      30.30R
TAYLORVILLE    CLOUDY    28  27  93 N3        30.29S
$$

ILZ033-039-045-046-055>057-062-063-190900-
EAST-CENTRAL ILLINOIS

CITY           SKY/WX    TMP DP  RH WIND       PRES   REMARKS
CHAMPAIGN      CLEAR     19  16  88 N3        30.28S
DANVILLE*      CLEAR     19  17  93 CALM      30.26R
RANTOUL*       CLEAR     20  18  93 NW5       30.28S FOG     WCI  13
MATTOON        CLOUDY    26  21  81 N5        30.27S WCI  20
PARIS*         MOCLDY    27  24  87 CALM      30.29R
$$

ILZ079-100>102-190900-
SOUTHWEST ILLINOIS

CITY           SKY/WX    TMP DP  RH WIND       PRES   REMARKS
ALTON          CLOUDY    31  27  86 CALM      30.29S
BELLEVILLE     PTCLDY    29  27  90 NE2       30.28S
CAHOKIA*       CLOUDY    34  28  79 NE3       30.28F
SPARTA*        CLOUDY    31  28  87 CALM      30.29S
$$

ILZ064>066-069>071-074>076-080>082-084>086-088>090-092>094-190900-
SOUTH-CENTRAL ILLINOIS

CITY           SKY/WX    TMP DP  RH WIND       PRES   REMARKS
CARBONDALE     CLOUDY    32  27  81 E3        30.29R
CAIRO*         CLOUDY    37  32  84 N3        30.28R
EFFINGHAM*     MOCLDY    27  23  85 CALM      30.30S FOG
MARION         CLOUDY    32  28  86 CALM      30.29S
MT. VERNON     CLEAR     27  21  80 CALM      30.29R
CENTRALIA*     CLOUDY    31  26  81 CALM      30.28S
SALEM*         CLOUDY    32  28  82 CALM      30.29R
METROPOLIS*    CLOUDY    34  32  94 N3        30.27S FOG
$$

ILZ067-068-072-073-078-083-087-091-190900-
SOUTHEAST ILLINOIS

CITY           SKY/WX    TMP DP  RH WIND       PRES   REMARKS
LAWRENCEVILLE  MOCLDY    27  24  89 N5        30.29S WCI  22
FLORA*         CLEAR     31  27  85 N5        30.29S WCI  26
FAIRFIELD*     CLOUDY    29  27  92 CALM      30.28R
HARRISBURG*    CLOUDY    31  28  88 CALM      30.30R
ROBINSON*      CLEAR     24  24  96 N5        30.31R WCI  19
CARMI*         CLOUDY    32  30  92 CALM      30.28S
$$

ABBREVIATIONS USED IN REMARKS
   TC - TEMPERATURE IN CELSIUS
  WCI - WIND CHILL INDEX
   HX - HEAT INDEX
  VSB - VISIBILITY
$$



USA.gov is the U.S. government's official web portal to all federal, state and local government web resources and services.